Location: Tamazert
(32.6352°N, 5.2072°W)
Time: 15:52:34
(UTC+00:00)

Cosmos 1825 - Pass Details

Date: 22 May 2022
Orbit: 496 x 498 km, 82.5° (Epoch: 28 June)

Event Time Altitude Azimuth Distance (km) Brightness Sun altitude
Rises 04:38:36 0° 182° (S) 2,566 5.4 -8.2°
Reaches altitude 10° 04:40:42 10° 181° (S) 1,687 4.5 -7.8°
Maximum altitude 04:44:23 76° 95° (E) 514 2.3 -7.1°
Drops below altitude 10° 04:48:06 10° 10° (N) 1,699 5.4 -6.5°
Sets 04:50:13 0° 9° (N) 2,585 6.3 -6.1°
